Date,TemperatureHighF,TemperatureAvgF,TemperatureLowF,DewpointHighF,DewpointAvgF,DewpointLowF,HumidityHigh,HumidityAvg,HumidityLow,PressureMaxIn,PressureMinIn,WindSpeedMaxMPH,WindSpeedAvgMPH,GustSpeedMaxMPH,PrecipitationSumIn
2014-1-1,53.4,29.8,20.0,29.1,22.1,18.1,94,77,28,30.42,30.16,10,1,10,0.00
2014-1-2,38.6,30.2,17.7,37.5,27.5,10.9,96,90,72,30.16,29.72,22,4,22,0.13
2014-1-3,24.8,15.3,10.5,12.4,8.1,4.6,88,74,50,30.49,30.04,21,5,21,0.00
2014-1-4,46.5,25.1,14.9,24.4,13.9,7.0,88,65,33,30.46,30.26,12,2,12,0.00
2014-1-5,60.3,38.4,21.3,46.4,32.9,17.5,95,82,59,30.26,29.61,16,1,16,0.00
2014-1-6,55.9,19.5,-0.9,47.4,14.1,-9.0,95,79,59,30.35,29.58,32,12,32,0.11
2014-1-7,12.7,2.7,-5.2,1.3,-4.5,-11.8,87,72,57,30.64,30.35,17,8,17,0.00
2014-1-8,37.9,17.1,1.5,17.3,8.7,-1.2,89,73,37,30.73,30.58,12,1,12,0.00
2014-1-9,53.8,30.6,19.1,27.2,21.1,15.9,87,70,29,30.59,30.41,10,2,10,0.00
2014-1-10,53.1,42.3,36.3,48.4,39.0,25.2,97,88,60,30.42,30.00,12,2,12,0.06
2014-1-11,54.2,47.4,38.3,53.8,44.1,32.6,99,89,64,30.00,29.59,27,6,27,0.77
2014-1-12,51.0,37.5,25.3,35.5,30.6,23.4,93,77,50,30.16,29.84,16,5,16,0.00
2014-1-13,49.7,36.2,21.7,39.3,30.1,20.1,96,80,48,30.15,29.90,7,1,7,0.01
2014-1-14,50.2,40.4,26.4,42.2,36.4,24.9,98,87,54,29.98,29.80,20,2,20,0.30
2014-1-15,37.9,29.9,23.3,32.9,27.0,18.0,97,89,73,30.06,29.94,9,1,9,0.02
2014-1-16,36.1,25.4,14.3,22.8,17.7,12.2,93,74,43,30.10,29.95,13,2,13,0.00
2014-1-17,46.5,33.8,24.6,29.7,23.9,16.0,88,69,37,30.02,29.81,22,5,22,0.00
2014-1-18,30.6,22.4,15.3,19.0,14.2,6.3,82,71,56,30.12,29.98,20,6,20,0.00
2014-1-19,41.1,31.1,22.1,29.6,24.7,18.0,95,78,58,30.06,29.95,21,4,21,0.00
2014-1-20,53.2,34.5,21.6,30.1,24.7,19.1,93,70,38,30.01,29.86,16,4,18,0.00
2014-1-21,41.5,27.0,14.8,33.3,23.2,10.2,93,86,68,30.01,29.66,21,4,21,0.01
2014-1-22,21.9,14.5,5.5,10.3,4.6,-0.6,84,65,50,30.19,30.00,16,6,16,0.00
2014-1-23,25.3,17.3,4.6,14.8,5.8,-7.5,77,61,42,30.59,30.18,21,10,21,0.00
2014-1-24,21.4,8.0,-3.1,2.4,-2.8,-7.7,82,63,32,30.69,30.25,16,4,16,0.00
2014-1-25,26.1,18.8,2.5,21.0,11.2,-1.2,91,74,43,30.25,29.80,20,7,20,0.00
2014-1-26,48.8,29.4,5.7,30.9,17.5,1.1,86,62,41,30.02,29.84,17,4,17,0.00
2014-1-27,41.8,29.8,16.1,34.3,19.5,1.2,90,67,36,30.25,29.86,16,4,16,0.00
2014-1-28,18.0,13.8,10.6,13.5,6.8,-1.8,88,74,51,30.36,30.25,7,2,7,0.00
2014-1-29,20.9,5.7,-13.3,7.0,-2.0,-17.1,87,72,45,30.49,30.30,14,2,14,0.00
2014-1-30,42.7,14.6,-6.7,18.1,4.3,-10.0,87,68,31,30.49,30.23,9,1,9,0.03
2014-1-31,44.4,27.0,13.2,22.0,16.6,10.3,89,69,33,30.32,30.23,15,2,15,0.00
2014-2-1,69.8,40.6,22.1,38.6,27.5,18.6,90,65,23,30.24,30.03,9,1,9,0.00
2014-2-2,50.8,38.4,25.4,45.4,35.9,23.2,98,91,73,30.12,29.98,8,1,8,0.05
2014-2-3,45.1,38.0,28.1,44.6,36.1,26.9,98,93,80,30.26,29.83,20,2,20,1.23
2014-2-4,46.8,38.8,28.4,42.0,35.1,27.4,96,87,72,30.31,29.92,17,7,17,0.09
2014-2-5,50.4,40.3,25.8,48.0,36.3,20.1,99,86,71,30.23,29.76,28,7,28,0.21
2014-2-6,33.8,27.7,23.1,22.5,19.9,16.3,83,72,59,30.40,30.24,12,3,12,0.00
2014-2-7,39.4,29.4,23.5,25.5,22.3,20.3,90,75,53,30.41,30.30,12,2,12,0.00
2014-2-8,39.0,32.1,24.3,32.1,27.6,21.7,93,84,69,30.31,30.18,9,1,9,0.00
2014-2-9,40.4,36.3,32.8,36.2,33.5,30.6,95,89,83,30.22,30.04,15,3,15,0.00
2014-2-10,32.8,29.7,23.8,30.7,25.5,18.4,92,84,74,30.30,30.11,6,2,6,0.00
2014-2-11,41.8,26.9,19.7,19.7,16.3,11.1,87,67,33,30.37,30.28,9,2,10,0.01
2014-2-12,29.6,24.4,20.3,22.8,17.7,14.4,94,77,53,30.35,29.95,17,10,17,0.00
2014-2-13,33.0,28.5,21.5,30.5,26.7,20.0,96,93,89,29.95,29.73,20,5,20,0.00
2014-2-14,47.3,31.4,10.7,34.2,25.9,8.6,96,82,52,29.92,29.68,16,3,16,0.15
2014-2-15,34.9,27.6,16.8,33.6,22.4,13.3,97,81,58,30.15,29.63,21,7,21,0.10
2014-2-16,44.7,31.7,18.5,31.5,25.2,15.5,92,78,56,30.25,30.11,20,4,20,0.01
2014-2-17,50.6,33.9,17.3,35.7,25.6,15.5,94,74,44,30.31,30.05,10,3,10,0.04
2014-2-18,57.4,40.9,28.2,38.9,30.6,24.6,96,71,29,30.28,30.04,13,3,13,0.01
2014-2-19,66.0,48.2,35.4,53.1,40.4,29.5,99,77,39,30.10,29.92,31,5,31,0.46
2014-2-20,72.8,57.0,36.8,51.8,44.7,33.4,88,65,44,30.09,29.77,24,4,24,0.00
2014-2-21,65.4,48.9,27.8,54.1,37.8,24.4,95,68,34,30.07,29.67,25,8,25,0.59
2014-2-22,60.4,39.9,25.3,32.7,25.1,18.4,95,63,20,30.24,30.07,15,2,15,0.00
2014-2-23,63.8,43.8,24.8,36.8,28.8,22.2,91,61,29,30.12,29.94,15,3,15,0.00
2014-2-24,47.2,36.8,24.0,35.3,22.0,12.1,85,59,26,30.19,30.01,17,4,17,0.00
2014-2-25,43.3,32.2,22.8,22.1,19.0,13.5,84,60,36,30.15,30.03,15,2,15,0.00
2014-2-26,32.8,27.7,15.3,23.4,18.2,12.1,88,68,48,30.06,29.91,15,3,17,0.00
2014-2-27,39.5,25.6,14.8,13.1,9.4,5.6,89,53,30,30.09,29.92,20,6,22,0.00
2014-2-28,51.2,30.7,11.8,21.1,13.9,8.1,86,55,26,30.25,30.09,12,3,12,0.00
2014-3-1,58.9,40.1,29.6,33.2,25.4,17.3,83,57,36,30.32,30.17,15,3,15,0.00
2014-3-2,62.4,51.1,38.1,51.2,43.7,32.7,98,77,58,30.23,29.87,21,3,21,0.23
2014-3-3,51.8,31.7,20.9,51.0,29.2,16.9,97,90,83,30.29,29.83,12,4,12,0.58
2014-3-4,44.6,29.1,17.2,32.1,22.5,14.0,93,77,52,30.31,30.19,15,4,15,0.04
2014-3-5,60.1,38.5,25.5,36.3,28.9,24.3,97,73,32,30.25,30.12,12,1,12,0.00
2014-3-6,45.0,37.5,32.1,28.6,24.4,21.1,79,60,43,30.28,30.11,18,10,18,0.00
2014-3-7,53.8,38.6,29.8,39.6,32.5,27.8,93,80,58,30.11,29.97,15,6,15,0.04
2014-3-8,62.6,43.7,26.9,42.7,32.9,25.7,96,71,36,30.15,30.03,18,4,18,0.00
2014-3-9,60.1,47.4,31.2,39.6,34.0,25.8,88,62,33,30.16,30.05,14,5,14,0.00
2014-3-10,62.1,43.8,25.9,43.8,34.2,22.8,90,71,50,30.08,29.90,19,4,20,0.00
2014-3-11,69.5,48.8,29.3,46.0,37.4,27.9,97,70,33,29.91,29.60,17,3,17,0.00
2014-3-12,62.3,44.8,29.6,56.0,40.2,22.3,97,84,70,29.82,29.28,31,7,31,0.10
2014-3-13,38.7,28.7,21.9,24.8,12.9,3.3,92,55,28,30.28,29.82,25,9,25,0.00
2014-3-14,60.4,39.8,17.7,32.9,23.0,14.0,88,56,31,30.34,30.05,22,4,22,0.00
2014-3-15,65.8,52.7,35.9,38.7,32.0,25.1,77,48,22,30.07,29.99,23,7,23,0.00
2014-3-16,52.0,42.0,34.5,40.4,34.5,28.4,92,76,49,30.05,29.75,18,6,18,0.22
2014-3-17,37.1,33.9,31.5,34.4,31.2,28.6,93,90,87,29.93,29.72,18,11,18,0.18
2014-3-18,55.4,39.9,31.1,43.5,34.3,27.9,89,81,63,30.07,29.92,15,10,15,0.00
2014-3-19,65.2,48.7,30.5,47.5,40.3,29.0,97,75,47,30.09,29.90,23,7,23,0.00
2014-3-20,57.4,47.3,29.1,44.4,30.9,17.5,92,58,21,30.11,29.98,20,6,20,0.00
2014-3-21,66.0,44.0,23.6,32.6,26.2,19.3,90,58,17,30.19,30.00,16,3,16,0.00
2014-3-22,66.4,49.5,31.2,41.7,35.8,27.8,89,63,36,30.04,29.96,16,3,16,0.00
2014-3-23,48.3,41.6,33.3,38.7,32.4,21.6,89,71,42,30.23,30.00,14,3,17,0.02
2014-3-24,49.7,33.1,16.1,21.9,17.4,11.5,91,57,26,30.31,30.08,15,2,15,0.00
2014-3-25,36.9,31.1,25.1,31.3,25.1,16.9,94,79,51,30.14,29.89,25,6,25,0.08
2014-3-26,41.3,28.0,19.6,19.6,15.9,10.5,91,63,32,30.36,30.14,17,6,17,0.00
2014-3-27,63.4,42.1,20.4,25.3,20.4,16.1,85,48,20,30.39,30.15,13,4,13,0.00
2014-3-28,65.2,54.1,43.6,51.9,43.9,26.4,92,69,38,30.16,30.01,14,3,14,0.00
2014-3-29,67.5,52.0,33.1,56.2,48.7,31.2,95,89,63,30.07,29.58,20,4,23,0.50
2014-3-30,49.3,37.3,31.0,35.1,31.0,28.6,94,80,51,30.20,29.90,18,7,22,0.02
2014-3-31,70.2,44.9,24.1,39.5,29.8,22.1,95,62,24,30.28,30.10,6,1,8,0.00
2014-4-1,76.1,54.8,36.2,45.3,38.9,33.4,91,62,26,30.17,30.02,18,4,18,0.00
2014-4-2,79.7,57.9,34.6,53.0,44.8,33.1,96,67,36,30.13,30.00,15,2,16,0.00
2014-4-3,78.0,62.3,48.1,61.7,53.9,44.6,96,76,50,30.06,29.82,20,3,20,0.14
2014-4-4,65.6,59.4,47.9,58.2,54.4,46.5,97,84,71,29.89,29.67,22,5,22,0.20
2014-4-5,59.4,47.5,36.5,52.1,35.5,30.6,86,65,41,30.12,29.84,14,4,14,0.00
2014-4-6,65.9,50.1,34.6,40.2,34.6,29.7,85,58,30,30.15,29.98,15,5,15,0.00
2014-4-7,67.2,54.5,43.4,55.5,48.7,37.7,96,82,58,30.03,29.54,16,6,16,0.66
2014-4-8,60.3,50.7,45.9,53.8,40.5,33.8,81,69,46,29.76,29.59,22,7,22,0.00
2014-4-9,59.9,48.9,35.3,42.9,37.1,28.9,89,67,32,30.14,29.76,16,4,16,0.00
2014-4-10,71.6,49.8,28.6,41.0,34.4,26.6,94,62,26,30.28,30.10,20,4,20,0.00
2014-4-11,73.3,55.9,39.4,47.5,40.8,36.3,91,62,27,30.21,30.03,18,4,18,0.00
2014-4-12,80.3,63.1,42.2,54.3,47.0,39.7,91,59,31,30.22,30.02,10,2,10,0.00
2014-4-13,85.4,65.2,42.7,55.1,49.2,40.5,94,61,31,30.11,29.92,12,3,13,0.00
2014-4-14,72.8,65.4,59.7,60.1,54.8,51.0,94,70,47,29.94,29.71,26,4,26,0.08
2014-4-15,60.4,44.5,30.6,57.7,40.6,20.0,96,86,64,30.15,29.57,20,6,20,0.24
2014-4-16,57.3,39.2,21.9,29.1,21.9,18.1,86,54,27,30.43,30.14,14,5,14,0.00
2014-4-17,66.3,48.6,31.6,36.0,27.6,22.4,72,46,25,30.49,30.32,15,7,15,0.00
2014-4-18,60.9,49.3,39.0,43.6,34.4,27.2,76,57,41,30.40,30.21,9,2,9,0.00
2014-4-19,67.7,56.6,46.8,43.0,39.4,36.2,76,54,33,30.22,30.12,20,6,20,0.00
2014-4-20,72.2,55.7,36.8,42.6,36.9,32.5,91,54,24,30.29,30.14,12,4,12,0.00
2014-4-21,78.0,58.2,37.4,47.6,39.6,31.1,79,53,28,30.18,29.92,14,3,14,0.00
2014-4-22,66.6,57.6,45.9,58.5,51.8,42.7,93,82,61,29.92,29.72,18,4,18,0.07
2014-4-23,65.9,54.1,40.5,52.2,32.6,26.4,84,46,24,30.04,29.80,15,6,15,0.00
2014-4-24,76.7,54.7,31.8,42.6,34.1,28.3,88,53,17,30.10,29.90,12,3,12,0.00
2014-4-25,64.0,56.9,50.5,60.1,50.8,39.5,94,80,57,29.96,29.70,20,4,20,0.55
2014-4-26,75.8,56.6,38.1,51.4,44.0,37.1,98,69,29,30.04,29.93,15,4,15,0.00
2014-4-27,83.9,62.1,39.3,54.1,45.1,35.2,95,61,19,30.04,29.85,10,2,10,0.00
2014-4-28,79.6,65.2,57.3,66.0,58.9,52.5,96,81,57,29.91,29.73,15,4,15,0.12
2014-4-29,73.9,65.6,59.0,63.1,59.1,56.4,96,80,61,29.87,29.67,16,3,16,0.32
2014-4-30,80.5,68.2,57.2,60.9,57.1,53.3,88,69,44,29.88,29.70,21,4,21,0.00
2014-5-1,64.1,56.6,46.0,53.7,47.4,39.7,96,73,42,29.93,29.83,20,6,20,0.00
2014-5-2,65.0,51.5,35.7,43.7,39.3,33.8,94,66,40,29.97,29.87,18,4,18,0.00
2014-5-3,69.2,56.2,40.5,45.6,42.7,38.6,93,64,40,29.98,29.88,22,4,22,0.00
2014-5-4,80.8,60.4,39.1,51.8,44.7,37.2,94,61,28,30.04,29.88,20,6,24,0.00
2014-5-5,81.9,65.1,44.9,55.8,50.4,43.0,94,63,36,30.00,29.80,20,5,20,0.00
2014-5-6,83.1,67.4,50.9,56.9,52.6,48.3,92,63,34,29.94,29.85,14,4,14,0.00
2014-5-7,86.5,66.9,47.6,61.1,52.2,45.7,96,66,25,30.09,29.94,15,3,15,0.00
2014-5-8,84.7,67.3,47.7,58.9,52.9,46.1,96,65,30,30.19,30.05,16,3,16,0.00
2014-5-9,82.4,66.4,50.0,61.0,55.8,48.3,95,71,38,30.11,29.98,18,4,18,0.00
2014-5-10,72.5,62.2,54.8,63.1,58.6,53.3,96,88,67,30.08,29.98,12,2,12,0.21
2014-5-11,82.8,66.1,55.5,64.3,57.7,50.0,99,78,33,30.17,30.05,9,2,9,0.00
2014-5-12,85.8,70.0,54.1,65.8,59.9,52.1,96,74,45,30.17,30.06,13,2,15,0.00
2014-5-13,88.6,70.1,57.3,69.2,62.9,56.3,98,81,44,30.12,30.00,20,2,20,0.03
2014-5-14,86.5,73.5,61.6,66.6,60.3,53.4,98,68,36,30.10,29.85,14,4,14,0.08
2014-5-15,73.0,60.7,48.5,66.3,57.6,47.0,98,90,60,30.00,29.80,15,4,15,1.34
2014-5-16,60.7,49.5,37.4,50.3,43.5,36.4,97,81,55,30.12,29.95,26,5,26,0.06
2014-5-17,56.9,47.3,35.5,45.9,41.1,34.7,98,81,54,30.24,30.11,13,2,13,0.00
2014-5-18,68.0,53.1,41.0,44.9,41.2,38.1,97,69,34,30.27,30.16,11,2,12,0.00
2014-5-19,73.5,54.9,37.1,47.6,41.6,35.6,95,66,31,30.31,30.19,13,2,13,0.00
2014-5-20,77.1,59.5,41.1,60.5,51.1,39.6,96,76,51,30.27,30.07,15,3,16,0.00
2014-5-21,78.1,65.3,49.7,63.7,57.9,48.9,98,79,59,30.11,29.97,15,4,15,0.00
2014-5-22,80.7,68.6,60.1,66.9,62.8,59.0,97,83,61,30.05,29.93,14,4,14,0.45
2014-5-23,75.3,66.4,52.8,64.2,57.4,48.2,99,75,43,30.07,29.97,13,3,13,0.00
2014-5-24,76.9,60.5,42.9,53.7,48.8,41.8,96,70,38,30.17,30.06,10,2,10,0.00
2014-5-25,79.3,63.0,47.2,57.1,52.0,45.8,97,71,39,30.17,30.09,15,2,15,0.00
2014-5-26,83.6,67.4,49.8,65.8,57.9,48.7,97,75,43,30.18,30.05,12,2,15,0.00
2014-5-27,79.6,66.7,57.2,67.9,62.2,56.1,97,86,63,30.10,29.98,9,2,12,0.00
2014-5-28,84.9,69.3,54.4,68.4,61.8,53.8,98,79,50,30.05,29.95,7,2,12,0.00
2014-5-29,86.5,70.3,58.1,66.8,62.7,56.9,98,79,49,30.05,29.97,12,2,12,0.00
2014-5-30,86.3,71.4,57.5,68.7,63.6,56.7,98,78,49,30.05,29.97,10,2,10,0.00
2014-5-31,82.7,70.4,58.6,66.8,61.0,57.0,99,75,44,30.13,30.02,10,3,10,0.00
2014-6-1,78.2,67.4,57.7,63.0,58.2,54.5,92,74,57,30.21,30.12,13,3,13,0.00
2014-6-2,85.6,68.5,52.4,63.8,58.2,51.3,97,72,45,30.21,30.04,9,2,9,0.00
2014-6-3,76.9,65.8,58.7,67.8,61.7,56.5,96,87,69,30.09,29.97,9,2,9,0.15
2014-6-4,84.1,70.3,56.8,69.1,63.7,56.2,99,82,55,29.99,29.74,13,3,13,0.04
2014-6-5,76.8,70.4,62.5,68.8,65.2,58.6,96,84,66,29.88,29.71,12,4,13,0.36
2014-6-6,81.5,67.2,52.5,59.0,55.1,49.6,98,69,38,29.98,29.86,13,2,13,0.00
2014-6-7,86.0,70.0,53.7,66.5,59.9,51.8,95,73,46,29.99,29.88,9,2,9,0.00
2014-6-8,83.5,72.7,62.0,69.2,64.2,60.1,95,76,51,29.90,29.79,21,4,21,0.00
2014-6-9,83.1,71.0,61.6,64.3,61.1,58.4,91,72,49,29.90,29.80,14,3,15,0.00
2014-6-10,89.6,71.7,58.4,67.7,63.0,57.3,98,77,45,29.94,29.80,17,4,17,0.65
2014-6-11,84.3,73.3,62.3,69.3,64.0,61.4,98,75,52,29.90,29.74,12,2,12,0.01
2014-6-12,79.6,70.9,63.3,67.0,64.4,61.5,95,81,59,29.85,29.78,12,3,12,0.00
2014-6-13,80.5,70.3,62.9,66.5,63.1,60.5,97,80,51,29.93,29.81,12,2,12,0.22
2014-6-14,82.0,68.4,55.9,63.7,56.0,45.1,97,69,30,30.06,29.92,11,2,11,0.00
2014-6-15,87.6,71.5,54.2,67.8,59.4,51.0,90,68,45,30.16,30.04,9,2,9,0.00
2014-6-16,88.6,76.3,63.8,70.5,66.5,62.3,96,74,49,30.16,30.06,9,1,12,0.00
2014-6-17,88.2,75.1,60.5,70.3,64.8,59.6,98,74,46,30.17,30.04,12,3,12,0.00
2014-6-18,91.8,75.8,59.4,71.3,65.2,58.4,97,73,40,30.13,30.01,13,2,13,0.00
2014-6-19,87.4,72.1,62.1,72.7,66.6,61.0,97,84,55,30.11,30.01,20,3,20,0.91
2014-6-20,84.4,68.4,61.2,73.3,65.7,60.6,99,92,63,30.08,29.96,15,1,15,0.61
2014-6-21,82.8,70.5,63.2,73.0,66.2,62.6,99,88,53,29.97,29.84,12,2,12,0.37
2014-6-22,85.2,73.7,63.8,68.8,65.0,61.7,98,77,47,29.92,29.84,7,2,7,0.00
2014-6-23,89.2,74.1,63.7,70.4,65.7,62.0,96,77,47,30.04,29.92,8,2,13,0.00
2014-6-24,87.8,73.3,63.9,72.1,66.5,62.4,96,81,48,30.04,29.93,16,2,16,0.20
2014-6-25,80.4,70.4,64.5,72.1,67.2,63.5,98,90,70,29.99,29.91,12,2,12,0.13
2014-6-26,84.9,73.5,63.3,69.8,66.0,62.7,99,80,49,30.02,29.91,9,1,9,0.00
2014-6-27,87.3,73.6,64.6,70.4,66.3,63.1,96,80,51,30.08,29.97,9,1,10,0.00
2014-6-28,82.3,73.0,66.2,70.1,66.5,64.3,95,81,61,30.16,30.06,10,3,10,0.00
2014-6-29,85.3,72.9,66.1,73.6,67.9,64.6,98,85,58,30.17,30.05,13,2,13,0.53
2014-6-30,82.1,71.5,63.9,70.6,67.2,63.6,99,87,64,30.07,29.93,10,2,10,0.01
2014-7-1,88.2,75.3,64.5,73.0,68.9,63.8,99,83,55,29.96,29.83,12,2,12,0.00
2014-7-2,88.6,77.5,67.6,73.6,69.2,66.7,98,78,51,29.93,29.87,12,3,12,0.00
2014-7-3,82.5,72.6,61.5,70.7,65.7,56.9,98,80,61,30.03,29.90,14,3,14,0.00
2014-7-4,76.0,65.2,54.0,58.3,54.1,50.3,97,70,44,30.24,30.03,15,3,15,0.00
2014-7-5,83.9,66.0,47.5,58.4,52.9,46.4,97,68,34,30.29,30.14,12,2,12,0.00
2014-7-6,83.8,69.8,56.1,63.1,58.3,54.4,96,70,42,30.16,30.00,12,2,14,0.00
2014-7-7,86.9,71.9,55.2,66.7,60.5,54.1,97,71,43,30.03,29.87,20,4,20,0.00
2014-7-8,85.2,73.4,63.2,69.2,64.4,60.3,97,75,55,29.98,29.85,20,5,20,0.86
2014-7-9,79.5,70.5,66.6,72.2,68.1,65.2,98,92,72,30.01,29.91,14,3,14,0.78
2014-7-10,84.1,73.0,64.4,68.9,65.1,59.6,98,79,46,30.09,29.98,8,2,10,0.01
2014-7-11,89.1,73.3,59.5,67.6,61.4,54.3,98,71,33,30.17,30.08,7,2,7,0.00
2014-7-12,88.4,75.1,61.7,70.9,65.7,60.7,98,75,44,30.17,30.06,10,2,12,0.00
2014-7-13,86.7,75.8,65.1,72.2,68.7,63.8,97,80,58,30.09,29.95,15,2,15,0.00
2014-7-14,88.2,73.9,65.9,73.4,68.6,65.0,98,85,56,29.98,29.83,21,3,21,0.18
2014-7-15,77.1,69.2,59.4,70.1,66.4,58.4,98,91,67,29.89,29.77,13,2,13,0.55
2014-7-16,75.3,63.4,51.2,58.4,54.1,50.7,99,75,45,30.01,29.86,10,2,10,0.01
2014-7-17,80.8,64.2,48.9,59.8,54.6,48.1,98,74,44,30.09,30.00,9,2,9,0.00
2014-7-18,65.2,63.2,60.2,63.6,60.5,55.6,97,91,82,30.17,30.09,7,2,9,0.40
2014-7-19,72.8,65.4,61.7,66.6,62.7,59.8,98,91,77,30.14,30.03,12,3,12,0.42
2014-7-20,81.3,69.7,61.9,70.4,64.0,58.7,95,83,63,30.07,29.99,9,3,9,0.00
2014-7-21,86.6,72.2,62.0,70.8,66.4,61.4,98,84,53,30.10,30.02,13,2,13,0.00
2014-7-22,87.2,75.3,64.6,70.4,67.0,63.4,97,78,52,30.12,30.01,9,2,9,0.00
2014-7-23,83.4,72.7,62.8,74.0,68.3,62.2,98,87,71,30.07,29.90,12,2,13,0.00
2014-7-24,83.3,70.4,63.2,71.7,67.0,60.9,98,90,61,29.99,29.84,18,2,18,0.30
2014-7-25,82.1,68.7,55.0,67.7,61.6,54.3,99,80,49,30.06,29.96,10,2,12,0.00
2014-7-26,83.5,71.5,58.4,67.2,63.4,57.6,98,78,51,30.02,29.92,13,2,13,0.00
2014-7-27,75.4,70.5,66.0,71.9,67.8,63.8,98,91,83,29.97,29.77,12,3,12,0.75
2014-7-28,74.4,68.2,58.8,65.5,61.9,56.5,97,81,62,29.92,29.80,16,6,16,0.15
2014-7-29,74.7,64.3,54.1,59.9,55.9,51.4,98,77,50,30.06,29.91,12,2,12,0.00
2014-7-30,78.2,62.2,47.3,58.1,53.4,46.5,98,76,46,30.11,30.04,7,1,7,0.00
2014-7-31,81.7,65.7,52.9,66.0,59.4,51.9,97,82,55,30.11,30.06,12,2,12,0.02
2014-8-1,74.7,67.4,60.5,63.7,61.0,57.0,93,80,65,30.10,30.02,12,4,12,0.00
2014-8-2,84.1,69.0,58.3,68.3,61.8,56.1,96,80,48,30.09,29.98,10,2,10,0.00
2014-8-3,80.3,67.3,57.0,65.8,59.9,56.2,98,80,50,30.10,30.05,10,2,12,0.00
2014-8-4,83.7,68.2,52.8,63.3,57.8,52.0,98,74,39,30.12,30.00,9,2,9,0.00
2014-8-5,84.1,70.8,57.5,67.3,62.1,56.4,97,76,50,30.06,29.97,15,2,15,0.00
2014-8-6,83.6,68.0,56.2,72.5,63.1,55.4,98,86,59,30.02,29.93,12,2,12,0.93
2014-8-7,83.0,70.1,61.1,69.3,62.8,59.9,99,81,47,30.02,29.96,9,1,9,0.01
2014-8-8,72.0,67.2,61.9,69.9,65.0,60.2,96,93,87,30.07,29.98,5,1,6,0.44
2014-8-9,80.3,69.7,65.1,72.0,66.9,63.7,98,91,73,30.04,29.95,12,3,12,0.02
2014-8-10,75.8,69.3,63.6,69.5,65.3,61.5,94,87,77,30.04,29.97,12,5,12,0.02
2014-8-11,80.4,71.4,67.8,73.8,67.9,64.5,94,89,73,30.01,29.86,7,2,7,0.11
2014-8-12,81.7,71.3,65.8,72.3,68.5,65.0,99,92,68,29.88,29.75,23,2,23,1.46
2014-8-13,72.4,63.5,53.9,65.0,58.5,53.3,99,85,65,30.05,29.87,12,2,12,0.00
2014-8-14,78.7,64.3,50.8,64.7,57.9,50.3,99,82,56,30.09,29.96,12,2,12,0.01
2014-8-15,79.6,67.5,56.8,66.5,61.5,55.9,98,82,59,30.03,29.94,10,2,10,0.00
2014-8-16,82.0,67.6,53.8,65.6,59.7,53.2,99,79,44,30.05,29.98,10,2,10,0.00
2014-8-17,79.7,70.4,61.9,68.9,65.1,60.6,97,84,64,30.02,29.93,8,1,8,0.00
2014-8-18,75.7,69.7,66.5,70.8,67.7,65.1,98,93,82,29.94,29.77,21,4,21,2.05
2014-8-19,82.5,71.5,65.4,71.8,68.5,64.7,99,91,64,29.90,29.80,13,2,13,0.03
2014-8-20,82.6,71.0,63.3,73.5,67.8,62.7,99,90,71,30.09,29.88,14,2,14,0.35
2014-8-21,83.6,72.0,62.0,74.4,68.0,61.1,98,88,70,30.13,30.03,10,2,10,0.06
2014-8-22,86.8,73.5,65.0,75.1,69.7,64.7,100,89,63,30.08,29.93,10,2,12,0.18
2014-8-23,87.3,74.7,67.9,75.1,69.9,67.0,98,86,61,30.00,29.88,9,1,9,0.12
2014-8-24,80.5,71.9,63.8,71.0,67.1,61.3,98,86,70,30.06,29.91,13,5,13,0.00
2014-8-25,79.0,68.4,58.7,64.2,60.8,57.8,97,78,52,30.10,30.03,13,4,13,0.00
2014-8-26,84.6,67.7,54.3,65.9,59.2,53.2,98,77,49,30.16,30.05,8,2,8,0.00
2014-8-27,86.0,67.9,51.0,65.9,58.4,50.2,98,75,41,30.11,29.99,7,1,7,0.00
2014-8-28,87.4,72.0,59.1,72.3,65.3,58.2,98,81,53,30.04,29.96,8,1,8,0.00
2014-8-29,90.2,73.3,63.2,73.3,67.5,62.4,98,84,52,30.08,29.98,14,2,14,0.11
2014-8-30,91.4,74.7,63.0,70.9,66.6,62.4,99,79,41,30.14,30.02,8,1,8,0.01
2014-8-31,83.2,74.3,66.9,72.3,69.1,66.3,98,85,66,30.11,30.02,17,2,17,0.25
2014-9-1,86.8,75.2,66.9,71.6,68.8,66.3,99,82,54,30.08,29.98,13,2,13,0.01
2014-9-2,87.9,76.2,63.7,73.2,68.6,62.8,99,79,56,30.05,29.89,20,3,20,0.29
2014-9-3,82.5,72.4,64.9,71.7,67.7,64.0,99,86,66,30.07,29.97,7,1,7,0.01
2014-9-4,86.9,71.9,64.8,73.5,68.2,64.2,98,89,60,30.13,30.05,13,1,13,0.20
2014-9-5,83.9,70.9,64.7,74.6,68.2,64.4,99,92,65,30.17,30.05,12,1,12,1.07
2014-9-6,85.0,72.1,64.6,74.5,68.0,63.3,100,88,65,30.08,29.93,15,1,15,0.04
2014-9-7,83.3,70.5,61.7,70.6,65.6,61.1,99,86,62,30.05,29.96,10,2,10,0.00
2014-9-8,74.8,68.0,62.9,66.3,63.3,60.1,93,85,73,30.10,30.02,16,7,16,0.00
2014-9-9,86.2,71.1,61.9,70.1,64.8,60.3,96,82,53,30.11,29.99,8,2,8,0.00
2014-9-10,83.8,71.1,61.4,69.6,65.0,60.5,98,82,58,30.06,29.93,10,2,10,0.00
2014-9-11,83.5,69.8,59.8,72.4,66.3,59.1,99,90,67,30.02,29.92,17,2,17,0.44
2014-9-12,81.3,71.7,67.5,71.5,68.8,66.3,99,91,71,30.05,29.96,6,1,6,0.00
2014-9-13,69.5,65.2,59.0,68.3,62.4,54.2,98,91,83,30.22,29.97,12,2,12,0.77
2014-9-14,67.2,61.0,53.3,61.6,57.4,52.1,97,88,80,30.25,30.16,12,3,12,0.00
2014-9-15,74.2,64.8,55.8,66.3,61.5,55.1,99,90,71,30.19,30.08,12,2,12,0.00
2014-9-16,75.0,65.7,58.4,66.9,62.7,57.3,99,91,70,30.09,29.95,10,2,10,0.01
2014-9-17,77.3,62.9,51.0,63.2,57.4,50.5,99,84,54,30.00,29.88,9,2,9,0.00
2014-9-18,74.0,60.3,49.1,61.7,55.4,48.6,99,85,55,30.05,29.93,7,1,8,0.00
2014-9-19,76.6,64.8,52.2,64.3,58.2,51.4,98,81,60,30.16,30.05,24,3,24,0.01
2014-9-20,84.0,65.7,51.5,62.3,56.9,50.7,99,77,42,30.19,29.98,8,1,8,0.00
2014-9-21,75.6,63.3,51.5,68.4,60.2,51.0,99,90,72,30.03,29.82,15,4,15,0.04
2014-9-22,69.2,56.2,45.7,54.7,49.7,45.1,99,81,56,30.23,29.96,12,2,12,0.00
2014-9-23,71.0,55.8,41.6,56.4,49.6,40.8,98,81,56,30.30,30.22,14,3,14,0.01
2014-9-24,70.8,59.0,50.7,55.0,49.8,44.6,91,74,44,30.35,30.27,18,5,18,0.00
2014-9-25,76.6,64.2,55.8,64.6,58.5,53.6,95,83,60,30.28,30.15,15,4,15,0.00
2014-9-26,75.3,64.5,55.8,64.3,59.6,55.0,98,85,65,30.22,30.11,13,3,13,0.00
2014-9-27,77.8,63.7,52.6,61.7,57.2,51.8,98,81,54,30.21,30.10,12,2,12,0.00
2014-9-28,77.5,62.8,53.5,62.4,57.1,52.1,96,83,54,30.18,30.06,8,1,8,0.01
2014-9-29,78.0,63.6,55.4,65.3,59.6,54.6,99,88,58,30.07,29.92,6,1,6,0.03
2014-9-30,79.3,62.6,50.4,64.5,56.2,49.8,99,82,45,29.96,29.85,12,2,12,0.01
2014-10-1,80.6,61.5,46.3,62.1,54.0,45.8,99,80,40,30.05,29.94,10,1,10,0.00
2014-10-2,82.8,63.1,48.3,62.5,55.2,47.8,99,79,42,30.11,29.98,12,1,12,0.00
2014-10-3,73.8,61.8,51.5,66.3,59.3,50.7,99,92,75,30.00,29.75,15,2,15,0.41
2014-10-4,59.6,49.5,36.7,58.3,40.6,30.8,97,74,44,29.92,29.75,20,6,20,0.02
2014-10-5,60.2,43.6,29.1,40.0,34.8,28.0,97,75,38,30.04,29.89,16,3,16,0.00
2014-10-6,71.8,51.2,36.3,55.4,46.8,35.3,98,87,48,30.05,29.98,29,3,29,0.58
2014-10-7,64.7,56.5,52.7,57.7,54.8,51.3,99,94,72,30.06,29.92,13,1,13,0.77
2014-10-8,73.0,60.9,45.6,61.6,54.2,44.6,99,82,42,30.11,29.94,18,3,22,0.34
2014-10-9,76.7,55.1,41.3,60.7,50.7,40.8,99,88,44,30.18,30.09,10,1,12,0.19
2014-10-10,64.5,58.6,51.6,63.6,58.0,51.2,99,98,95,30.11,29.96,8,1,8,0.85
2014-10-11,69.3,63.0,58.8,66.5,62.1,58.1,100,97,90,30.06,29.91,9,1,9,0.36
2014-10-12,62.9,58.8,55.9,59.7,57.3,54.8,98,95,88,30.16,30.00,12,4,12,0.64
2014-10-13,77.4,65.3,55.0,65.8,58.4,54.2,99,81,54,30.17,29.99,13,2,16,0.00
2014-10-14,72.8,68.6,57.8,65.2,61.2,56.7,97,78,63,29.99,29.66,20,5,21,0.99
2014-10-15,65.1,56.3,49.8,57.3,51.3,47.1,99,84,55,29.83,29.76,15,3,15,0.00
2014-10-16,58.6,52.6,50.8,53.6,50.6,49.1,97,93,80,29.91,29.75,12,3,13,0.10
2014-10-17,71.0,57.4,49.7,55.8,51.7,47.5,96,83,55,29.95,29.77,20,4,20,0.00
2014-10-18,58.6,53.5,46.5,54.7,48.6,42.9,99,84,68,30.03,29.79,12,3,14,0.01
2014-10-19,62.9,48.2,37.5,43.5,41.3,36.2,96,79,46,30.22,30.03,9,2,9,0.00
2014-10-20,63.5,49.0,36.2,50.5,43.9,35.2,98,84,59,30.14,29.97,20,2,20,0.00
2014-10-21,60.4,50.9,42.0,51.9,45.2,39.6,99,82,56,30.08,29.93,18,3,18,0.02
2014-10-22,48.4,45.4,43.2,42.7,40.8,37.2,91,84,77,30.21,30.05,10,2,12,0.01
2014-10-23,55.7,46.2,35.2,44.5,40.1,33.9,96,80,61,30.23,30.11,9,2,10,0.00
2014-10-24,66.0,44.8,32.7,47.8,38.8,31.8,98,83,40,30.16,30.06,8,1,8,0.00
2014-10-25,67.1,47.5,29.8,51.0,41.6,29.1,99,82,55,30.12,30.03,10,2,13,0.01
2014-10-26,73.1,54.5,39.0,53.4,41.7,26.5,99,70,18,30.05,29.99,14,2,17,0.00
2014-10-27,78.3,53.8,36.0,61.4,46.9,34.4,96,80,49,30.16,30.02,13,2,13,0.00
2014-10-28,73.9,56.5,41.0,60.8,51.2,40.3,99,84,59,30.13,30.04,14,2,14,0.00
2014-10-29,57.1,50.7,39.6,56.3,47.1,38.3,98,88,57,30.08,30.00,8,1,10,0.21
2014-10-30,59.9,42.8,34.0,46.2,38.2,32.5,98,86,51,30.11,30.01,6,1,8,0.01
2014-10-31,52.5,38.7,29.4,43.1,36.3,28.7,99,92,68,30.04,29.87,14,1,14,0.25
2014-11-1,38.5,35.0,32.5,36.9,33.4,29.5,98,94,84,30.25,29.87,12,2,13,0.21
2014-11-2,47.1,34.7,24.4,29.8,25.4,22.4,93,70,42,30.47,30.25,16,3,16,0.00
2014-11-3,62.6,38.1,21.3,36.2,26.7,19.0,96,71,20,30.53,30.38,9,1,9,0.00
2014-11-4,62.1,44.2,28.7,41.8,34.0,26.9,94,72,32,30.41,30.24,9,1,9,0.00
2014-11-5,54.3,46.6,38.6,49.1,43.7,36.8,98,90,74,30.30,30.09,6,0,6,0.24
2014-11-6,62.2,51.7,41.5,54.1,45.5,32.2,99,81,55,30.09,29.79,27,5,27,0.29
2014-11-7,47.1,37.8,28.3,39.8,34.1,26.9,95,87,69,30.15,29.98,18,2,18,0.00
2014-11-8,56.0,39.9,23.4,41.2,33.0,22.4,97,79,50,30.10,29.95,13,1,13,0.01
2014-11-9,59.9,41.3,28.1,43.4,35.2,26.9,98,81,50,30.08,29.96,9,1,9,0.00
2014-11-10,72.7,45.6,28.2,45.4,36.1,27.4,98,74,33,30.12,30.00,12,1,12,0.00
2014-11-11,70.7,46.3,28.6,42.7,34.8,27.2,97,71,22,30.08,29.93,12,1,12,0.00
2014-11-12,51.8,45.8,39.2,48.1,41.9,36.3,92,86,78,30.15,29.99,9,1,9,0.00
2014-11-13,40.7,36.0,27.5,37.9,33.4,24.1,96,90,87,30.21,30.09,14,3,14,0.00
2014-11-14,29.3,23.5,12.6,24.0,15.0,9.5,87,70,56,30.44,30.20,13,4,13,0.00
2014-11-15,45.0,26.3,11.5,23.5,16.2,8.9,91,69,29,30.51,30.33,12,1,12,0.00
2014-11-16,45.1,37.8,29.9,39.1,28.8,20.1,95,72,48,30.35,29.95,8,2,9,0.22
2014-11-17,51.0,39.0,22.2,50.5,36.8,17.2,99,92,71,30.04,29.65,18,5,18,0.77
2014-11-18,26.2,19.4,10.3,17.2,10.2,6.8,88,68,47,30.39,30.05,20,8,20,0.00
2014-11-19,42.7,23.9,8.2,18.9,13.3,5.8,92,67,35,30.46,30.20,15,3,15,0.00
2014-11-20,46.7,35.8,24.0,30.2,23.9,17.7,84,63,44,30.25,30.11,22,5,22,0.00
2014-11-21,45.8,29.6,19.1,19.9,16.5,10.6,88,61,26,30.53,30.25,12,2,13,0.00
2014-11-22,61.8,34.8,18.3,28.4,21.0,13.7,85,62,24,30.54,30.28,8,1,9,0.00
2014-11-23,58.1,47.2,29.6,52.6,40.8,24.7,92,79,67,30.28,29.59,13,3,20,0.32
2014-11-24,70.0,59.6,48.5,51.8,46.5,38.5,90,64,38,29.90,29.60,28,6,28,0.00
2014-11-25,55.6,43.6,33.1,38.5,33.2,29.5,92,69,39,30.12,29.90,8,1,12,0.00
2014-11-26,43.9,37.0,30.2,39.6,34.2,28.9,97,90,66,30.07,29.96,6,1,6,0.44
2014-11-27,35.2,31.8,27.4,33.1,29.0,21.7,98,90,77,30.38,30.00,14,4,14,0.11
2014-11-28,35.3,27.2,21.8,24.7,21.2,18.1,92,79,63,30.45,30.29,10,2,12,0.00
2014-11-29,51.8,36.2,21.8,36.6,28.7,19.6,93,77,43,30.33,30.17,10,1,12,0.05
2014-11-30,62.9,48.9,39.9,50.0,43.0,36.3,92,81,61,30.29,30.18,20,2,20,0.00
2014-12-1,56.6,49.6,37.3,53.4,47.5,36.0,98,93,82,30.37,30.29,10,1,12,0.05
2014-12-2,52.7,47.1,43.0,52.4,46.6,42.5,99,98,97,30.32,30.24,13,2,13,0.42
2014-12-3,54.9,45.4,34.3,54.3,44.4,33.5,100,96,81,30.31,30.19,20,2,20,0.04
2014-12-4,46.8,42.2,35.3,46.3,41.5,34.8,99,97,92,30.35,30.29,8,1,10,0.30
2014-12-5,51.5,46.8,43.8,48.2,44.6,42.2,97,92,86,30.39,30.23,9,2,12,0.03
2014-12-6,56.1,48.2,40.0,55.5,46.9,38.1,99,95,83,30.31,30.01,14,2,15,0.43
2014-12-7,49.3,39.9,34.2,38.4,29.2,20.0,93,68,37,30.49,30.30,12,4,12,0.00
2014-12-8,40.9,36.8,32.1,33.1,24.7,16.8,92,63,47,30.40,30.20,15,7,15,0.00
2014-12-9,40.8,35.2,26.3,36.3,32.3,25.0,96,89,78,30.20,30.06,10,2,12,0.01
2014-12-10,36.8,33.2,29.5,33.5,29.0,22.2,94,85,73,30.18,30.12,18,5,18,0.02
2014-12-11,40.3,29.2,18.7,24.3,21.2,16.0,93,73,47,30.34,30.13,14,4,14,0.00
2014-12-12,45.0,27.3,17.2,27.3,21.2,15.6,95,80,48,30.43,30.31,12,2,12,0.00
2014-12-13,48.0,28.9,17.6,32.3,22.7,15.7,95,80,48,30.37,30.23,14,2,14,0.00
2014-12-14,38.9,28.0,17.5,32.5,25.1,15.8,95,89,76,30.27,30.18,5,0,5,0.00
2014-12-15,65.9,36.6,21.2,38.7,29.8,20.9,99,80,32,30.18,29.99,6,1,8,0.00
2014-12-16,49.6,44.4,38.9,46.1,39.9,34.9,97,84,76,30.12,29.89,18,4,20,0.00
2014-12-17,47.3,38.8,25.1,38.9,33.8,23.7,95,83,63,30.21,30.10,14,4,14,0.00
2014-12-18,40.4,31.9,22.8,30.9,26.3,21.6,96,81,60,30.26,30.16,8,1,8,0.00
2014-12-19,42.7,35.4,25.7,29.9,26.2,22.9,90,70,47,30.24,30.17,7,1,7,0.00
2014-12-20,41.1,34.7,25.9,37.3,31.8,23.4,96,89,83,30.27,30.19,5,1,5,0.02
2014-12-21,53.2,39.3,33.5,39.2,35.3,31.3,98,87,57,30.28,30.13,8,1,8,0.07
2014-12-22,54.9,42.1,33.6,44.6,37.6,31.5,93,84,66,30.16,29.91,16,7,16,0.00
2014-12-23,52.6,47.3,41.7,52.2,45.4,38.9,99,93,86,29.98,29.82,14,2,14,0.38
2014-12-24,63.7,53.8,42.5,58.7,51.6,39.4,99,92,74,29.85,29.49,21,3,26,0.33
2014-12-25,46.1,37.6,24.8,39.4,32.7,23.3,95,83,61,30.31,29.75,15,2,15,0.00
2014-12-26,56.8,35.5,21.3,37.1,27.0,20.1,97,76,30,30.41,30.27,12,1,12,0.00
2014-12-27,60.6,45.2,30.2,40.9,34.5,25.0,92,69,35,30.35,30.12,8,1,8,0.00
2014-12-28,48.3,45.1,41.6,46.3,42.7,38.6,98,91,72,30.11,30.02,5,1,8,0.16
2014-12-29,47.2,44.0,36.6,46.9,43.6,35.8,99,98,97,30.18,30.04,8,1,8,0.34
2014-12-30,37.7,32.5,20.1,35.9,30.3,18.9,97,91,78,30.51,30.16,7,2,7,0.11
2014-12-31,32.0,23.7,16.6,24.7,19.4,14.7,97,84,63,30.54,30.44,12,1,12,0.00
2015-1-1,35.3,26.4,13.6,25.7,19.2,12.0,95,76,53,30.44,30.32,12,2,12,0.00
2015-1-2,42.6,37.2,33.7,38.7,32.1,25.3,98,82,66,30.40,30.31,6,1,6,0.03